TimeEDT,TemperatureF,Dew PointF,Humidity,Sea Level PressureIn,VisibilityMPH,Wind Direction,Wind SpeedMPH,Gust SpeedMPH,PrecipitationIn,Events,Conditions,WindDirDegrees,DateUTC
12:51 AM,63.0,59.0,87,29.97,8.0,West,5.8,-,N/A,,Clear,270,2012-10-07 04:51:00
1:51 AM,62.1,59.0,90,29.96,7.0,Calm,Calm,-,N/A,,Clear,0,2012-10-07 05:51:00
2:51 AM,60.8,59.0,94,29.98,7.0,WNW,3.5,-,N/A,,Clear,290,2012-10-07 06:51:00
3:51 AM,61.0,57.9,90,29.96,7.0,WNW,4.6,-,N/A,,Partly Cloudy,290,2012-10-07 07:51:00
4:51 AM,60.1,57.9,93,29.96,7.0,West,3.5,-,N/A,,Partly Cloudy,260,2012-10-07 08:51:00
5:51 AM,59.0,55.9,90,29.96,8.0,WNW,6.9,-,N/A,,Scattered Clouds,290,2012-10-07 09:51:00
6:51 AM,57.9,55.0,90,29.98,9.0,Calm,Calm,-,N/A,,Clear,0,2012-10-07 10:51:00
7:51 AM,57.0,55.0,93,29.99,7.0,West,3.5,-,N/A,,Partly Cloudy,280,2012-10-07 11:51:00
8:51 AM,60.1,55.9,86,30.01,8.0,West,3.5,-,N/A,,Clear,260,2012-10-07 12:51:00
9:51 AM,64.0,55.9,75,30.01,8.0,Calm,Calm,-,N/A,,Partly Cloudy,0,2012-10-07 13:51:00
10:51 AM,66.0,57.0,73,30.02,8.0,West,3.5,-,N/A,,Clear,280,2012-10-07 14:51:00
11:51 AM,71.1,57.0,61,30.03,8.0,WNW,6.9,18.4,N/A,,Clear,300,2012-10-07 15:51:00
12:51 PM,69.1,55.9,63,30.02,8.0,WNW,8.1,-,N/A,,Clear,300,2012-10-07 16:51:00
1:51 PM,72.0,57.0,59,30.01,8.0,WNW,9.2,17.3,N/A,,Clear,290,2012-10-07 17:51:00
2:51 PM,72.0,55.9,57,30.00,8.0,NW,10.4,-,N/A,,Clear,320,2012-10-07 18:51:00
3:51 PM,69.1,54.0,58,30.01,8.0,NW,11.5,20.7,N/A,,Clear,320,2012-10-07 19:51:00
4:51 PM,68.0,54.0,61,30.01,9.0,WNW,8.1,-,N/A,,Clear,300,2012-10-07 20:51:00
5:51 PM,66.9,54.0,63,30.02,9.0,Variable,5.8,-,N/A,,Clear,0,2012-10-07 21:51:00
6:51 PM,63.0,54.0,72,30.04,9.0,West,6.9,-,N/A,,Clear,280,2012-10-07 22:51:00
7:51 PM,61.0,53.1,75,30.04,10.0,WNW,4.6,-,N/A,,Clear,300,2012-10-07 23:51:00
8:51 PM,60.1,53.1,78,30.05,10.0,WNW,5.8,-,N/A,,Clear,290,2012-10-08 00:51:00
9:51 PM,57.9,51.1,78,30.06,10.0,WNW,3.5,-,N/A,,Clear,290,2012-10-08 01:51:00
10:51 PM,55.9,51.1,84,30.08,10.0,NNW,3.5,-,N/A,,Clear,340,2012-10-08 02:51:00
11:51 PM,55.9,50.0,80,30.08,10.0,Calm,Calm,-,N/A,,Clear,0,2012-10-08 03:51:00